Retour au catalogue

STARLINK-5839

ActifCommunicationsVLEO
NORAD 57051·PAYLOAD·🇺🇸 United States

Lancé Jun 22, 2023 depuis Vandenberg Space Force Base

Loading…

Prochains Passages (prochaines 24 heures)

TLE

FraisSource: CelesTrak SupGP

Époque: Sep 15, 2026, 01:55 UTC

1 57051C 23088D   26258.08034722  .00060122  00000+0  21774-2 0  2589
2 57051  42.9993 120.8470 0001711 245.3037 346.7643 15.27551065    13

Suivez STARLINK-5839 en temps réel avec AllMySat

Download on the App Store